GW5403 Weather Reports


time (UTC)temp
C
wind
direction
speed
KPH
gust
KPH
rain 1hr
cm
rain 24hr
cm
rain mn
cm
humidity
%
barometer
mb
20260505195041 12 119 8.0 24.1 0.00 0.41 0.41 69 1016.2
20260505194538 12 193 12.9 17.7 0.00 0.41 0.41 71 1016.5
20260505194033 11 136 12.9 25.7 0.00 0.41 0.41 76 1016.5
20260505193531 11 116 19.3 25.7 0.00 0.41 0.41 77 1016.8
20260505193028 11 183 12.9 29.0 0.00 0.41 0.41 82 1016.8
20260505192526 10 162 17.7 29.0 0.00 0.41 0.41 83 1016.8
20260505192024 10 154 20.9 29.0 0.00 0.41 0.41 84 1017.2
20260505191522 9 189 9.7 27.4 0.00 0.41 0.41 86 1016.9
20260505191020 8 100 9.7 20.9 0.00 0.41 0.41 90 1017.4
20260505190514 8 188 6.4 20.9 0.18 0.41 0.41 92 1017.4
20260505190010 7 148 8.0 16.1 0.30 0.41 0.41 92 1017.5
20260505185507 7 158 9.7 20.9 0.00 0.36 0.36 91 1017.5
20260505185003 7 160 9.7 17.7 0.00 0.36 0.36 89 1017.5
20260505184500 8 149 6.4 14.5 0.00 0.36 0.36 90 1017.3
20260505183957 8 127 19.3 29.0 0.00 0.36 0.36 89 1017.5
20260505183454 8 151 14.5 24.1 0.00 0.36 0.36 89 1017.4
20260505182950 8 140 16.1 25.7 0.00 0.36 0.36 89 1017.4
20260505182447 8 100 17.7 25.7 0.18 0.36 0.36 89 1017.2
20260505181944 8 151 12.9 22.5 0.18 0.36 0.36 91 1017.2
20260505181441 7 174 9.7 20.9 0.18 0.33 0.33 91 1017.3
20260505180938 7 183 11.3 22.5 0.18 0.33 0.33 91 1017.4
20260505180434 7 168 16.1 24.1 0.13 0.30 0.30 91 1017.5
20260505175931 7 179 8.0 20.9 0.30 0.30 0.30 91 1017.4
20260505175427 8 103 12.9 20.9 0.18 0.28 0.28 88 1017.2
20260505174924 10 174 16.1 33.8 0.00 0.25 0.25 78 1017.4
20260505174422 10 176 14.5 20.9 0.00 0.25 0.25 74 1017.2
20260505173917 11 168 17.7 24.1 0.00 0.25 0.25 71 1016.9
20260505173414 11 137 12.9 27.4 0.00 0.25 0.25 70 1017.0
20260505172911 11 143 14.5 27.4 0.00 0.25 0.25 72 1017.0
20260505172409 10 175 14.5 20.9 0.00 0.25 0.25 73 1016.9
20260505171908 11 149 11.3 24.1 0.00 0.25 0.25 74 1017.0
20260505171406 11 136 12.9 24.1 0.00 0.25 0.25 75 1016.8
20260505170902 10 159 9.7 16.1 0.00 0.25 0.25 78 1016.9
20260505170359 11 185 14.5 25.7 0.00 0.25 0.25 77 1016.5
20260505165854 10 202 17.7 22.5 0.00 0.25 0.25 77 1016.9
20260505165350 10 129 16.1 22.5 0.00 0.25 0.25 78 1017.2
20260505164846 9 197 12.9 20.9 0.00 0.25 0.25 83 1017.0
20260505164342 8 118 11.3 16.1 0.00 0.25 0.25 86 1017.2
20260505163841 9 158 17.7 22.5 0.00 0.25 0.25 81 1016.9
20260505163339 10 209 16.1 22.5 0.00 0.25 0.25 80 1017.0
20260505162838 10 126 14.5 24.1 0.00 0.25 0.25 80 1017.0
20260505162334 10 202 11.3 24.1 0.00 0.25 0.25 81 1017.0
20260505161831 9 211 11.3 16.1 0.00 0.25 0.25 84 1017.2
20260505161328 9 154 14.5 27.4 0.00 0.25 0.25 84 1017.0
20260505160825 9 84 9.7 17.7 0.00 0.25 0.25 82 1017.3
20260505160323 9 210 11.3 14.5 0.00 0.25 0.25 83 1017.3
20260505153301 8 187 6.4 12.9 0.00 0.25 0.25 90 1017.3
20260505152759 7 182 9.7 14.5 0.00 0.25 0.25 90 1017.2
20260505152255 7 188 9.7 14.5 0.00 0.25 0.25 90 1017.2
20260505151749 7 181 9.7 16.1 0.00 0.25 0.25 90 1017.3
20260505151247 7 210 9.7 14.5 0.00 0.25 0.25 90 1017.3
20260505150744 7 204 12.9 14.5 0.00 0.25 0.25 90 1017.4
20260505150241 7 187 4.8 11.3 0.00 0.25 0.25 92 1017.2
20260505140211 6 172 6.4 11.3 0.00 0.23 0.23 93 1017.3
20260505130135 6 188 4.8 11.3 0.00 0.23 0.23 94 1016.7
20260505124624 6 195 8.0 9.7 0.48 0.23 0.23 94 1016.9
20260505124121 6 132 4.8 16.1 0.43 0.20 0.20 94 1017.3
20260505123617 6 153 12.9 16.1 0.30 0.15 0.15 94 1017.3
20260505123114 6 176 4.8 11.3 0.18 0.13 0.13 94 1017.3
20260505122611 6 200 0.0 1.6 0.13 0.10 0.10 94 1017.0
20260505122108 6 207 0.0 0.0 0.18 0.08 0.08 93 1016.9
20260505121604 6 207 0.0 0.0 0.18 0.08 0.08 93 1016.7
20260505121101 6 205 0.0 1.6 0.13 0.05 0.05 93 1016.7
20260505120557 6 212 3.2 3.2 0.00 0.03 0.03 93 1016.9
20260505120053 6 222 1.6 3.2 0.00 0.03 0.03 92 1016.9
20260505115548 6 225 0.0 3.2 0.00 0.03 0.03 92 1016.9
20260505115045 6 206 0.0 1.6 0.00 0.03 0.03 92 1017.0
20260505114542 6 222 0.0 0.0 0.18 0.03 0.03 92 1017.2
20260505114038 6 218 0.0 1.6 0.18 0.03 0.03 91 1017.3
20260505113535 6 196 1.6 3.2 0.00 0.00 0.00 91 1017.5
20260505113032 7 205 3.2 4.8 0.00 0.00 0.00 91 1017.2
20260505112528 7 201 3.2 6.4 0.00 0.00 0.00 90 1017.6
20260505112026 7 191 1.6 4.8 0.00 0.00 0.00 90 1017.3
20260505111520 7 200 3.2 6.4 0.00 0.00 0.00 89 1017.5
20260505111016 7 185 6.4 11.3 0.00 0.00 0.00 88 1017.4
20260505110513 7 188 6.4 14.5 0.00 0.00 0.00 88 1017.3
20260505101945 8 158 9.7 14.5 0.00 0.00 0.00 82 1017.4
20260505101443 8 162 11.3 14.5 0.00 0.00 0.00 79 1017.6
20260505100939 8 131 12.9 14.5 0.00 0.00 0.00 75 1017.6
20260505100437 8 143 12.9 24.1 0.00 0.00 0.00 74 1017.4
20260505095933 8 154 11.3 27.4 0.00 0.00 0.00 73 1017.5
20260505095430 8 139 20.9 27.4 0.00 0.00 0.00 73 1017.2
20260505094926 8 170 11.3 24.1 0.00 0.00 0.00 73 1017.3
20260505094423 8 192 9.7 27.4 0.00 0.00 0.00 73 1017.2
20260505093919 8 193 9.7 22.5 0.00 0.00 0.00 73 1017.2
20260505093416 8 168 12.9 24.1 0.00 0.00 0.00 73 1017.2
20260505092913 8 124 14.5 27.4 0.00 0.00 0.00 72 1017.3
20260505092411 8 161 14.5 24.1 0.00 0.00 0.00 72 1017.4
20260505091908 8 147 16.1 25.7 0.00 0.00 0.00 72 1017.3
20260505091406 9 184 17.7 27.4 0.00 0.00 0.00 72 1017.2
20260505090903 9 87 14.5 29.0 0.00 0.00 0.00 71 1017.0
20260505090402 9 121 17.7 40.2 0.00 0.00 0.00 71 1017.2
20260505085859 9 114 16.1 40.2 0.00 0.00 0.00 71 1017.4
20260505085357 9 131 11.3 25.7 0.00 0.00 0.00 70 1017.3
20260505084854 9 146 16.1 30.6 0.00 0.00 0.00 70 1017.3
20260505084352 9 171 14.5 29.0 0.00 0.00 0.00 70 1017.3
20260505083850 9 126 17.7 27.4 0.00 0.00 0.00 69 1017.3
20260505083347 9 152 20.9 27.4 0.00 0.00 0.00 69 1017.5
20260505082843 9 127 6.4 20.9 0.00 0.00 0.00 68 1017.3
20260505082339 9 139 14.5 22.5 0.00 0.00 0.00 67 1017.3
20260505081836 9 152 11.3 25.7 0.00 0.00 0.00 67 1017.5
20260505081333 9 158 19.3 27.4 0.00 0.00 0.00 67 1017.6
20260505080830 9 141 9.7 24.1 0.00 0.00 0.00 66 1017.8
20260505080325 9 106 8.0 25.7 0.00 0.00 0.00 65 1017.8
20260505075821 9 186 6.4 9.7 0.00 0.00 0.00 65 1017.8
20260505075318 9 132 11.3 16.1 0.00 0.00 0.00 65 1017.8
20260505074816 9 170 6.4 22.5 0.00 0.00 0.00 66 1017.8
20260505074313 9 174 8.0 16.1 0.00 0.00 0.00 66 1017.6
20260505073810 9 160 6.4 12.9 0.00 0.00 0.00 66 1017.9
20260505073308 9 181 9.7 17.7 0.00 0.00 0.00 66 1017.6
20260505072805 9 179 12.9 16.1 0.00 0.00 0.00 66 1017.6
20260505072301 10 135 14.5 33.8 0.00 0.00 0.00 66 1017.8
20260505071756 10 118 17.7 25.7 0.00 0.00 0.00 66 1017.9
20260505071253 10 92 16.1 17.7 0.00 0.00 0.00 66 1018.2
20260505070751 10 136 8.0 20.9 0.00 0.00 0.00 65 1018.2
20260505070247 10 110 11.3 17.7 0.00 0.00 0.00 65 1018.4
20260505065743 10 126 14.5 16.1 0.00 0.00 0.00 65 1018.2
20260505065240 10 158 11.3 16.1 0.00 0.00 0.00 64 1018.5
20260505064737 10 186 1.6 6.4 0.00 0.00 0.00 64 1018.7
20260505064234 10 174 11.3 16.1 0.00 0.00 0.00 64 1018.7
20260505063732 10 212 4.8 16.1 0.00 0.00 0.00 63 1018.9
20260505063228 10 81 4.8 9.7 0.00 0.00 0.00 63 1018.7
20260505062724 10 164 8.0 16.1 0.00 0.00 0.00 62 1018.5
20260505062222 10 112 8.0 16.1 0.00 0.00 0.00 62 1018.9
20260505061719 10 188 11.3 17.7 0.00 0.00 0.00 61 1019.1
20260505061217 10 83 8.0 20.9 0.00 0.00 0.00 59 1019.1
20260505060714 10 207 8.0 11.3 0.00 0.00 0.00 57 1019.2
20260505060211 10 118 6.4 12.9 0.00 0.00 0.00 56 1019.5
20260505055706 10 157 4.8 4.8 0.00 0.00 0.00 54 1019.1
20260505055203 10 147 6.4 9.7 0.00 0.00 0.00 54 1019.0
20260505054700 10 120 4.8 14.5 0.00 0.00 0.00 54 1019.0
20260505054158 10 107 4.8 11.3 0.00 0.00 0.00 53 1018.9
20260505053656 10 269 8.0 14.5 0.00 0.00 0.00 53 1019.1
20260505053152 10 133 9.7 17.7 0.00 0.00 0.00 53 1019.1
20260505052649 10 27 4.8 16.1 0.00 0.00 0.00 52 1019.1
20260505052146 10 150 8.0 17.7 0.00 0.00 0.00 51 1019.3
20260505051643 10 159 9.7 20.9 0.00 0.00 0.00 51 1019.6
20260505051141 10 111 12.9 17.7 0.00 0.00 0.00 51 1019.6
20260505050639 10 121 6.4 14.5 0.00 0.00 0.00 51 1019.5
20260505050137 10 164 11.3 17.7 0.00 0.00 0.00 51 1019.5
20260505041606 11 166 12.9 20.9 0.00 0.00 0.00 50 1019.3
20260505041104 11 134 11.3 24.1 0.00 0.00 0.00 50 1019.5
20260505040601 11 107 6.4 16.1 0.00 0.00 0.00 50 1019.5
20260505040058 11 77 11.3 24.1 0.00 0.00 0.00 50 1019.6
20260505035554 11 150 3.2 17.7 0.00 0.00 0.00 49 1019.2
20260505035051 11 131 8.0 16.1 0.00 0.00 0.00 49 1018.9
20260505034547 11 96 12.9 22.5 0.00 0.00 0.00 48 1018.9
20260505034044 11 105 14.5 24.1 0.00 0.00 0.00 48 1018.5
20260505033541 11 103 20.9 29.0 0.00 0.00 0.00 47 1018.5
20260505033040 11 173 12.9 24.1 0.00 0.00 0.00 47 1018.2
20260505032537 11 124 8.0 24.1 0.00 0.00 0.00 46 1018.2
20260505032033 11 123 14.5 25.7 0.00 0.00 0.00 46 1018.2
20260505031531 11 161 9.7 25.7 0.00 0.00 0.00 45 1018.2
20260505031027 11 139 19.3 29.0 0.00 0.00 0.00 45 1018.2
20260505030524 12 176 19.3 29.0 0.00 0.00 0.00 44 1017.8
20260505030020 12 163 17.7 24.1 0.00 0.00 0.00 44 1017.8
20260505025516 12 202 17.7 33.8 0.00 0.00 0.00 44 1017.4
20260505025015 12 149 19.3 24.1 0.00 0.00 0.00 43 1017.6
20260505024511 12 137 16.1 27.4 0.00 0.00 0.00 43 1017.9
20260505024009 12 176 16.1 25.7 0.00 0.00 0.00 42 1017.8
20260505023505 12 124 24.1 35.4 0.00 0.00 0.00 41 1017.6
20260505023003 12 180 19.3 40.2 0.00 0.00 0.00 41 1017.6
20260505022501 12 131 14.5 33.8 0.00 0.00 0.00 40 1017.8
20260505021958 12 153 11.3 35.4 0.00 0.00 0.00 40 1017.5
20260505021454 12 191 22.5 41.8 0.00 0.00 0.00 40 1017.3
20260505020949 12 119 20.9 30.6 0.00 0.00 0.00 40 1017.3
20260505020445 12 134 16.1 33.8 0.00 0.00 0.00 39 1017.6
20260505015942 12 155 14.5 27.4 0.00 0.00 0.00 41 1017.3
20260505015439 12 85 12.9 25.7 0.00 0.00 0.00 42 1017.6
20260505014937 12 156 14.5 25.7 0.00 0.00 0.00 41 1017.6
20260505014433 12 189 14.5 33.8 0.00 0.00 0.00 40 1017.6
20260505013930 13 173 19.3 37.0 0.00 0.00 0.00 39 1017.6
20260505013427 13 106 17.7 35.4 0.00 0.00 0.00 38 1017.5
20260505012925 13 178 9.7 33.8 0.00 0.00 0.00 38 1017.5
20260505012423 13 192 14.5 27.4 0.00 0.00 0.00 38 1017.6
20260505011919 13 108 19.3 27.4 0.00 0.00 0.00 38 1017.6
20260505011416 13 120 16.1 40.2 0.00 0.00 0.00 37 1017.6
20260505010912 13 78 16.1 38.6 0.00 0.00 0.00 37 1017.8
20260505010408 13 121 19.3 37.0 0.00 0.00 0.00 38 1017.2
20260505005904 13 140 24.1 37.0 0.00 0.00 0.00 37 1017.4
20260505005401 13 163 11.3 40.2 0.00 0.00 0.00 37 1017.4
20260505004859 13 171 16.1 35.4 0.00 0.00 0.00 37 1017.6
20260505004355 14 130 24.1 33.8 0.00 0.00 0.00 36 1017.6
20260505003852 14 153 27.4 38.6 0.00 0.00 0.00 35 1017.5
20260505003349 15 98 27.4 40.2 0.00 0.00 0.00 34 1017.6
20260505002845 15 182 24.1 40.2 0.00 0.00 0.00 33 1017.6
20260505002342 15 133 20.9 30.6 0.00 0.00 0.00 32 1017.9
20260505001841 15 150 24.1 35.4 0.00 0.00 0.00 31 1017.5
20260505001337 15 158 19.3 35.4 0.00 0.00 0.00 31 1017.8
20260505000835 15 113 24.1 40.2 0.00 0.00 0.00 31 1017.5
20260505000332 15 183 25.7 38.6 0.00 0.00 0.00 31 1017.6
20260504235829 15 153 27.4 33.8 0.00 0.00 0.00 31 1017.4
20260504235326 15 156 17.7 40.2 0.00 0.00 0.00 31 1017.5
20260504234822 16 100 16.1 40.2 0.00 0.00 0.00 30 1017.3
20260504234320 16 161 27.4 40.2 0.00 0.00 0.00 30 1017.4
20260504233816 16 129 25.7 35.4 0.00 0.00 0.00 29 1017.5
20260504233312 16 141 16.1 27.4 0.00 0.00 0.00 29 1017.5
20260504232809 16 182 8.0 20.9 0.00 0.00 0.00 29 1017.5
20260504232306 16 161 20.9 37.0 0.00 0.00 0.00 29 1017.6
20260504231803 16 193 29.0 37.0 0.00 0.00 0.00 28 1017.8
20260504231259 16 138 17.7 30.6 0.00 0.00 0.00 28 1017.6
20260504230755 16 173 17.7 33.8 0.00 0.00 0.00 27 1017.5
20260504230254 16 174 16.1 35.4 0.00 0.00 0.00 28 1017.8
20260504225752 17 120 24.1 43.5 0.00 0.00 0.00 27 1017.8
20260504225248 17 162 19.3 40.2 0.00 0.00 0.00 27 1017.5
20260504224746 17 171 16.1 29.0 0.00 0.00 0.00 26 1017.6
20260504224243 17 156 24.1 37.0 0.00 0.00 0.00 26 1017.5
20260504223739 17 128 14.5 30.6 0.00 0.00 0.00 25 1017.8
20260504223235 17 90 17.7 38.6 0.00 0.00 0.00 25 1017.8
20260504222732 17 208 30.6 51.5 0.00 0.00 0.00 25 1017.8
20260504222228 17 154 19.3 35.4 0.00 0.00 0.00 26 1017.5
20260504221726 17 176 22.5 38.6 0.00 0.00 0.00 25 1017.5
20260504221223 17 126 24.1 38.6 0.00 0.00 0.00 25 1017.5
20260504220720 18 159 24.1 43.5 0.00 0.00 0.00 25 1017.4
20260504220217 18 99 19.3 30.6 0.00 0.00 0.00 24 1017.5
20260504215714 18 139 16.1 25.7 0.00 0.00 0.00 24 1017.4
20260504215211 18 97 11.3 30.6 0.00 0.00 0.00 24 1017.6
20260504214706 18 89 16.1 35.4 0.00 0.00 0.00 24 1017.9
20260504214203 18 175 19.3 29.0 0.00 0.00 0.00 24 1017.8
20260504213700 18 168 24.1 37.0 0.00 0.00 0.00 25 1017.9
20260504213156 18 162 27.4 48.3 0.00 0.00 0.00 24 1017.8
20260504212653 18 105 22.5 33.8 0.00 0.00 0.00 23 1018.1
20260504212150 19 132 24.1 35.4 0.00 0.00 0.00 23 1018.1
20260504211647 19 113 16.1 49.9 0.00 0.00 0.00 23 1018.0
20260504211143 20 150 20.9 30.6 0.00 0.00 0.00 23 1017.9
20260504210641 18 169 19.3 27.4 0.00 0.00 0.00 25 1018.1
20260504210137 18 131 29.0 46.7 0.00 0.00 0.00 25 1018.2
20260504205635 18 124 16.1 33.8 0.00 0.00 0.00 24 1018.4
20260504205132 18 119 27.4 40.2 0.00 0.00 0.00 24 1018.2
20260504204631 18 137 16.1 30.6 0.00 0.00 0.00 24 1018.5
20260504204129 18 96 22.5 29.0 0.00 0.00 0.00 26 1018.4
20260504203628 18 127 12.9 33.8 0.00 0.00 0.00 26 1018.2
20260504203125 18 163 22.5 38.6 0.00 0.00 0.00 27 1018.4
20260504202625 18 141 16.1 22.5 0.00 0.00 0.00 26 1018.2
20260504202122 18 129 14.5 27.4 0.00 0.00 0.00 27 1018.4
20260504201619 18 157 19.3 25.7 0.00 0.00 0.00 26 1018.4
20260504201117 18 187 14.5 20.9 0.00 0.00 0.00 27 1018.4
20260504200614 17 177 12.9 27.4 0.00 0.00 0.00 28 1018.1
20260504200110 17 121 14.5 37.0 0.00 0.00 0.00 26 1018.2
20260504195606 17 157 22.5 33.8 0.00 0.00 0.00 26 1018.4